#�ϑ�����,���ϕ���,���ϕ���,�ő啗��,�ő啗����������,�ő�u�ԕ���,�ő�u�ԕ�����������
#(�N����),(m/s)   ,(16����),(m/s)   ,(16����)        ,(m/s)       ,(16����)            
2012/6/27 0:01,0.5,5,0.5,5,0.6,3
2012/6/27 0:02,0.5,5,0.5,5,1,3
2012/6/27 0:03,0.5,4,0.5,5,1.4,3
2012/6/27 0:04,0.5,4,0.5,5,1.5,3
2012/6/27 0:05,0.6,4,0.6,6,1.5,3
2012/6/27 0:06,0.7,4,0.7,6,1.6,3
2012/6/27 0:07,0.7,3,0.7,6,1.3,4
2012/6/27 0:08,0.8,3,0.8,3,1.5,3
2012/6/27 0:09,0.9,3,0.9,3,1.8,3
2012/6/27 0:10,1,3,1,3,1.8,3
2012/6/27 0:11,1.2,3,1.2,3,3.9,2
2012/6/27 0:12,1.4,3,1.4,3,3.3,5
2012/6/27 0:13,1.4,4,1.4,3,2.9,5
2012/6/27 0:14,1.6,4,1.6,4,4.2,5
2012/6/27 0:15,1.8,4,1.8,4,4.4,4
2012/6/27 0:16,1.9,4,1.9,4,3.6,5
2012/6/27 0:17,2,4,2,4,2.5,8
2012/6/27 0:18,2,5,2,4,2,5
2012/6/27 0:19,2,5,2,4,2.1,4
2012/6/27 0:20,2.1,5,2.1,5,3.6,5
2012/6/27 0:21,2.2,5,2.2,5,3.2,7
2012/6/27 0:22,2.1,6,2.2,5,3.2,6
2012/6/27 0:23,2.1,6,2.1,5,2.2,5
2012/6/27 0:24,2,6,2.1,5,1.8,4
2012/6/27 0:25,1.8,6,2,5,2.5,4
2012/6/27 0:26,1.8,6,1.8,5,2.7,4
2012/6/27 0:27,1.8,5,1.8,5,1.9,3
2012/6/27 0:28,1.8,5,1.8,5,2.1,5
2012/6/27 0:29,1.8,5,1.8,5,1.6,6
2012/6/27 0:30,1.6,5,1.7,5,1.9,6
2012/6/27 0:31,1.5,5,1.6,5,2,7
2012/6/27 0:32,1.4,5,1.5,6,1.8,7
2012/6/27 0:33,1.3,5,1.4,6,2.1,4
2012/6/27 0:34,1.3,5,1.3,6,1.9,4
2012/6/27 0:35,1.4,5,1.4,6,2.5,5
2012/6/27 0:36,1.3,5,1.4,6,2.4,7
2012/6/27 0:37,1.4,6,1.4,5,2.5,7
2012/6/27 0:38,1.3,6,1.3,5,1.6,6
2012/6/27 0:39,1.3,6,1.3,5,2,6
2012/6/27 0:40,1.3,6,1.3,5,2,6
2012/6/27 0:41,1.3,6,1.3,5,1.6,6
2012/6/27 0:42,1.3,6,1.3,5,1.6,6
2012/6/27 0:43,1.3,6,1.3,5,1.9,6
2012/6/27 0:44,1.2,6,1.3,5,2.1,11
2012/6/27 0:45,1.1,6,1.2,5,0.6,11
2012/6/27 0:46,1,7,1.1,6,1.4,8
2012/6/27 0:47,0.9,7,1,6,1.5,8
2012/6/27 0:48,0.9,7,0.9,6,2,9
2012/6/27 0:49,0.9,7,0.9,6,2.1,7
2012/6/27 0:50,1,7,1,6,3.2,7
2012/6/27 0:51,1,8,1,6,2.4,8
2012/6/27 0:52,1,8,1,6,1,9
2012/6/27 0:53,0.9,8,1,6,1.3,8
2012/6/27 0:54,1,8,1,6,2.7,9
2012/6/27 0:55,1.1,8,1.1,6,2.6,9
2012/6/27 0:56,1.2,8,1.2,8,2.2,7
2012/6/27 0:57,1.2,8,1.2,8,2.1,8
2012/6/27 0:58,1.3,8,1.3,8,2.2,8
2012/6/27 0:59,1.3,8,1.3,8,2.7,9
2012/6/27 1:00,1.3,8,1.3,8,2.5,9
2012/6/27 1:01,1.3,8,1.3,8,2.2,8
2012/6/27 1:02,1.4,8,1.4,8,2.7,8
2012/6/27 1:03,1.4,8,1.4,8,2.9,9
2012/6/27 1:04,1.5,8,1.5,8,3,7
2012/6/27 1:05,1.6,8,1.6,8,3.8,8
2012/6/27 1:06,1.6,8,1.6,8,2.2,8
2012/6/27 1:07,1.7,8,1.7,8,2.1,9
2012/6/27 1:08,1.7,9,1.7,8,2.5,9
2012/6/27 1:09,1.7,9,1.7,8,2.5,9
2012/6/27 1:10,1.7,9,1.7,8,2.6,9
2012/6/27 1:11,1.7,9,1.8,9,2,8
2012/6/27 1:12,1.8,9,1.8,9,2.2,9
2012/6/27 1:13,1.8,9,1.8,9,2.2,9
2012/6/27 1:14,1.7,9,1.8,9,1.8,8
2012/6/27 1:15,1.5,9,1.7,9,1.5,8
2012/6/27 1:16,1.5,9,1.5,9,2.5,8
2012/6/27 1:17,1.4,9,1.5,9,2.5,8
2012/6/27 1:18,1.3,8,1.4,9,1.3,8
2012/6/27 1:19,1.2,8,1.3,9,1.1,7
2012/6/27 1:20,1.1,8,1.2,9,0.9,3
2012/6/27 1:21,1,7,1.1,9,1,3
2012/6/27 1:22,0.9,7,1,9,1.1,8
2012/6/27 1:23,0.8,7,0.9,9,1,8
2012/6/27 1:24,0.8,7,0.8,9,0.9,6
2012/6/27 1:25,0.7,6,0.7,9,0.8,3
2012/6/27 1:26,0.6,6,0.7,9,1.3,5
2012/6/27 1:27,0.6,6,0.6,8,1.4,4
2012/6/27 1:28,0.7,5,0.7,8,1.5,3
2012/6/27 1:29,0.7,4,0.7,8,1.4,2
2012/6/27 1:30,0.8,4,0.8,8,1.9,3
2012/6/27 1:31,0.8,4,0.8,7,0.9,2
2012/6/27 1:32,0.8,4,0.8,7,1,3
2012/6/27 1:33,0.8,3,0.8,7,1.5,2
2012/6/27 1:34,0.8,3,0.8,4,0.8,4
2012/6/27 1:35,0.9,3,0.9,3,2,3
2012/6/27 1:36,0.9,2,0.9,3,2.1,3
2012/6/27 1:37,0.9,2,0.9,3,1.4,5
2012/6/27 1:38,0.9,3,0.9,3,1.5,3
2012/6/27 1:39,0.9,3,0.9,3,1.4,4
2012/6/27 1:40,0.8,3,0.9,3,1.1,4
2012/6/27 1:41,0.8,3,0.8,3,1.4,3
2012/6/27 1:42,0.8,3,0.8,3,1.4,3
2012/6/27 1:43,0.9,3,0.9,3,2,3
2012/6/27 1:44,1,3,1,3,2.1,2
2012/6/27 1:45,1,3,1,3,1.9,3
2012/6/27 1:46,1,3,1,3,2.1,2
2012/6/27 1:47,1.1,3,1.1,3,1.6,2
2012/6/27 1:48,1.1,3,1.1,3,2.2,3
2012/6/27 1:49,1.1,3,1.1,3,2.4,3
2012/6/27 1:50,1.2,3,1.2,3,2.2,3
2012/6/27 1:51,1.3,2,1.3,2,2.4,3
2012/6/27 1:52,1.3,2,1.3,2,2,2
2012/6/27 1:53,1.3,2,1.3,2,1.9,2
2012/6/27 1:54,1.2,2,1.3,2,1.3,1
2012/6/27 1:55,1.2,2,1.2,2,2.1,2
2012/6/27 1:56,1.2,2,1.2,2,1.1,1
2012/6/27 1:57,1.2,2,1.2,2,2,2
2012/6/27 1:58,1.2,2,1.2,2,2.4,2
2012/6/27 1:59,1.2,2,1.2,2,2.2,3
2012/6/27 2:00,1.2,2,1.2,2,1.8,2
2012/6/27 2:01,1.2,2,1.2,2,2.7,3
2012/6/27 2:02,1.3,2,1.3,2,2.5,3
2012/6/27 2:03,1.4,2,1.4,2,2.5,3
2012/6/27 2:04,1.5,2,1.5,2,2.6,3
2012/6/27 2:05,1.6,2,1.6,2,2.5,3
2012/6/27 2:06,1.7,3,1.7,3,2.5,4
2012/6/27 2:07,1.7,3,1.7,3,1.5,1
2012/6/27 2:08,1.6,3,1.7,3,2,3
2012/6/27 2:09,1.7,3,1.7,3,1.9,3
2012/6/27 2:10,1.7,3,1.7,3,2,3
2012/6/27 2:11,1.6,3,1.7,3,1.8,3
2012/6/27 2:12,1.5,3,1.6,3,1.6,3
2012/6/27 2:13,1.4,3,1.5,3,1.3,2
2012/6/27 2:14,1.3,3,1.4,3,1.1,4
2012/6/27 2:15,1.1,3,1.3,3,1.5,2
2012/6/27 2:16,1.1,2,1.1,3,1.4,3
2012/6/27 2:17,1.1,2,1.1,3,1.6,3
2012/6/27 2:18,1.1,2,1.1,3,1.8,3
2012/6/27 2:19,1.1,2,1.1,3,2,1
2012/6/27 2:20,1.2,2,1.2,3,2.6,3
2012/6/27 2:21,1.2,3,1.2,3,2.6,3
2012/6/27 2:22,1.3,3,1.3,3,2.4,4
2012/6/27 2:23,1.3,3,1.3,3,1.5,6
2012/6/27 2:24,1.3,3,1.3,3,1.5,1
2012/6/27 2:25,1.3,3,1.3,3,1.4,3
2012/6/27 2:26,1.3,3,1.3,3,2.6,4
2012/6/27 2:27,1.3,3,1.4,3,1.8,2
2012/6/27 2:28,1.3,3,1.3,3,1.4,5
2012/6/27 2:29,1.2,3,1.3,3,1.4,5
2012/6/27 2:30,1.1,3,1.2,3,1.8,2
2012/6/27 2:31,1.1,3,1.1,3,2,3
2012/6/27 2:32,1.1,3,1.1,3,2.6,3
2012/6/27 2:33,1.2,3,1.2,3,2.5,3
2012/6/27 2:34,1.3,3,1.3,3,2.6,3
2012/6/27 2:35,1.4,3,1.4,3,2,3
2012/6/27 2:36,1.4,3,1.5,3,2.5,3
2012/6/27 2:37,1.6,3,1.6,3,2.9,3
2012/6/27 2:38,1.6,3,1.6,3,2.5,3
2012/6/27 2:39,1.7,3,1.7,3,2.1,4
2012/6/27 2:40,1.7,3,1.7,3,2,4
2012/6/27 2:41,1.7,3,1.7,3,1.9,6
2012/6/27 2:42,1.6,3,1.7,3,1.6,3
2012/6/27 2:43,1.5,3,1.6,3,1.6,3
2012/6/27 2:44,1.4,3,1.5,3,1.5,4
2012/6/27 2:45,1.4,3,1.4,3,2,3
2012/6/27 2:46,1.3,3,1.4,3,2,3
2012/6/27 2:47,1.3,3,1.3,3,2.2,3
2012/6/27 2:48,1.3,3,1.3,3,2.1,3
2012/6/27 2:49,1.3,3,1.3,3,2.2,3
2012/6/27 2:50,1.3,3,1.3,3,2.7,2
2012/6/27 2:51,1.4,3,1.4,3,2.6,4
2012/6/27 2:52,1.4,3,1.4,3,2.4,4
2012/6/27 2:53,1.5,3,1.5,3,2.4,3
2012/6/27 2:54,1.5,3,1.5,3,2.2,5
2012/6/27 2:55,1.5,3,1.5,3,1.9,3
2012/6/27 2:56,1.5,3,1.5,3,1.8,3
2012/6/27 2:57,1.6,3,1.6,3,2.9,3
2012/6/27 2:58,1.6,3,1.6,3,2.9,3
2012/6/27 2:59,1.6,3,1.6,3,2.5,3
2012/6/27 3:00,1.6,3,1.7,3,2.2,2
2012/6/27 3:01,1.6,3,1.6,3,2.4,3
2012/6/27 3:02,1.6,3,1.7,3,1.6,3
2012/6/27 3:03,1.6,3,1.6,3,1.9,3
2012/6/27 3:04,1.6,3,1.6,3,2,3
2012/6/27 3:05,1.6,3,1.6,3,2,3
2012/6/27 3:06,1.6,3,1.6,3,2.2,3
2012/6/27 3:07,1.5,3,1.6,3,2.1,3
2012/6/27 3:08,1.5,3,1.5,3,1.6,3
2012/6/27 3:09,1.4,3,1.5,3,2.2,3
2012/6/27 3:10,1.4,3,1.4,3,2.2,3
2012/6/27 3:11,1.4,2,1.4,3,2.7,1
2012/6/27 3:12,1.4,3,1.4,3,2.4,3
2012/6/27 3:13,1.5,3,1.5,3,2.4,3
2012/6/27 3:14,1.5,3,1.5,3,2.5,3
2012/6/27 3:15,1.5,3,1.5,3,1.9,4
2012/6/27 3:16,1.4,3,1.5,3,1.4,3
2012/6/27 3:17,1.4,3,1.4,3,1.9,3
2012/6/27 3:18,1.4,3,1.4,3,1.9,3
2012/6/27 3:19,1.4,3,1.4,3,2.1,3
2012/6/27 3:20,1.4,3,1.4,3,2.2,3
2012/6/27 3:21,1.4,3,1.4,3,1.9,5
2012/6/27 3:22,1.3,3,1.4,3,1.5,4
2012/6/27 3:23,1.3,3,1.3,3,2.2,2
2012/6/27 3:24,1.3,3,1.3,3,2,3
2012/6/27 3:25,1.3,3,1.3,3,1.8,2
2012/6/27 3:26,1.3,3,1.3,3,2.5,3
2012/6/27 3:27,1.4,3,1.4,3,2.4,3
2012/6/27 3:28,1.4,3,1.4,3,1.9,3
2012/6/27 3:29,1.4,3,1.4,3,1.8,3
2012/6/27 3:30,1.4,3,1.4,3,1.8,3
2012/6/27 3:31,1.4,3,1.4,3,2,3
2012/6/27 3:32,1.4,3,1.4,3,1.4,4
2012/6/27 3:33,1.3,3,1.4,3,1.5,3
2012/6/27 3:34,1.3,3,1.3,3,1.5,2
2012/6/27 3:35,1.3,3,1.3,3,1.3,2
2012/6/27 3:36,1.2,3,1.3,3,1.5,3
2012/6/27 3:37,1.2,3,1.2,3,2.2,3
2012/6/27 3:38,1.2,3,1.2,3,2.5,3
2012/6/27 3:39,1.3,3,1.3,3,2.5,3
2012/6/27 3:40,1.3,2,1.3,3,2.7,3
2012/6/27 3:41,1.3,2,1.4,3,2.4,2
2012/6/27 3:42,1.4,2,1.4,3,2.4,3
2012/6/27 3:43,1.5,2,1.5,2,2.5,3
2012/6/27 3:44,1.6,2,1.6,2,3,4
2012/6/27 3:45,1.7,3,1.7,3,2.6,3
2012/6/27 3:46,1.8,3,1.8,3,2,4
2012/6/27 3:47,1.8,3,1.8,3,2.5,4
2012/6/27 3:48,1.8,3,1.8,3,2.2,4
2012/6/27 3:49,1.8,3,1.8,3,2.2,4
2012/6/27 3:50,1.7,3,1.8,3,1.9,5
2012/6/27 3:51,1.7,4,1.7,3,1.6,4
2012/6/27 3:52,1.7,4,1.7,3,1.6,2
2012/6/27 3:53,1.6,4,1.7,3,1.9,3
2012/6/27 3:54,1.5,4,1.6,3,1.6,3
2012/6/27 3:55,1.4,4,1.5,3,1.1,2
2012/6/27 3:56,1.3,4,1.4,3,0.9,4
2012/6/27 3:57,1.2,4,1.3,3,2,4
2012/6/27 3:58,1.2,4,1.2,3,2,4
2012/6/27 3:59,1.1,4,1.2,3,1.3,5
2012/6/27 4:00,1.1,4,1.1,3,1.5,3
2012/6/27 4:01,1,3,1.1,4,1.4,3
2012/6/27 4:02,1.1,3,1.1,4,2.5,3
2012/6/27 4:03,1.2,3,1.2,4,2.9,3
2012/6/27 4:04,1.2,4,1.2,4,2.6,4
2012/6/27 4:05,1.3,3,1.3,4,2.5,3
2012/6/27 4:06,1.5,3,1.5,3,3,3
2012/6/27 4:07,1.6,3,1.6,3,3,3
2012/6/27 4:08,1.7,3,1.7,3,2.7,3
2012/6/27 4:09,1.8,3,1.8,3,4.2,3
2012/6/27 4:10,2,3,2,3,3.7,4
2012/6/27 4:11,2,3,2,3,3.1,5
2012/6/27 4:12,2,3,2,3,2,3
2012/6/27 4:13,1.8,3,2,3,1.9,2
2012/6/27 4:14,1.8,3,1.8,3,2.5,3
2012/6/27 4:15,1.8,3,1.8,3,3.3,3
2012/6/27 4:16,1.9,3,1.9,3,3.8,3
2012/6/27 4:17,1.9,3,1.9,3,2.9,3
2012/6/27 4:18,1.9,3,1.9,3,2.7,3
2012/6/27 4:19,1.9,3,2,3,2.7,3
2012/6/27 4:20,1.8,3,1.9,3,2.7,3
2012/6/27 4:21,1.9,3,1.9,3,2.6,3
2012/6/27 4:22,2,3,2,3,2.1,3
2012/6/27 4:23,2,3,2,3,1.9,2
2012/6/27 4:24,1.9,3,2,3,1.5,3
2012/6/27 4:25,1.8,3,1.9,3,1.4,3
2012/6/27 4:26,1.6,3,1.7,3,1.4,4
2012/6/27 4:27,1.4,3,1.6,3,1.1,6
2012/6/27 4:28,1.3,3,1.4,3,1.3,3
2012/6/27 4:29,1.2,3,1.3,3,1.4,4
2012/6/27 4:30,1.2,3,1.2,3,2.2,3
2012/6/27 4:31,1.1,3,1.2,3,1.4,4
2012/6/27 4:32,1,4,1.1,3,1,4
2012/6/27 4:33,0.9,4,0.9,3,0.9,4
2012/6/27 4:34,0.9,4,0.9,3,1.1,3
2012/6/27 4:35,0.9,4,0.9,3,1.5,5
2012/6/27 4:36,0.9,4,0.9,3,1.5,5
2012/6/27 4:37,0.9,4,0.9,3,1,3
2012/6/27 4:38,0.9,4,0.9,3,0.6,5
2012/6/27 4:39,0.8,4,0.9,3,1.1,4
2012/6/27 4:40,0.8,4,0.8,3,1.5,4
2012/6/27 4:41,0.8,4,0.8,3,1.4,6
2012/6/27 4:42,0.8,4,0.8,4,1.4,6
2012/6/27 4:43,0.9,4,0.9,4,1.4,5
2012/6/27 4:44,0.9,4,0.9,4,1.5,3
2012/6/27 4:45,1,4,1,4,2.1,3
2012/6/27 4:46,1.1,4,1.1,4,2,3
2012/6/27 4:47,1.2,4,1.2,4,2,3
2012/6/27 4:48,1.2,4,1.2,4,1.8,4
2012/6/27 4:49,1.3,4,1.3,4,2.6,3
2012/6/27 4:50,1.3,3,1.3,4,2.6,3
2012/6/27 4:51,1.3,3,1.3,4,2.1,3
2012/6/27 4:52,1.4,3,1.4,3,2.6,2
2012/6/27 4:53,1.5,3,1.5,3,2.5,2
2012/6/27 4:54,1.5,3,1.6,3,2.2,3
2012/6/27 4:55,1.5,3,1.5,3,1.6,16
2012/6/27 4:56,1.4,2,1.5,3,2.2,3
2012/6/27 4:57,1.5,2,1.5,3,2.5,3
2012/6/27 4:58,1.6,2,1.6,3,3,3
2012/6/27 4:59,1.7,3,1.7,3,3.7,4
2012/6/27 5:00,1.8,3,1.8,3,3.8,3
2012/6/27 5:01,1.9,3,1.9,3,2,3
2012/6/27 5:02,2,3,2,3,3.6,3
2012/6/27 5:03,2,3,2,3,3.1,3
2012/6/27 5:04,2,3,2,3,2.6,3
2012/6/27 5:05,2.2,3,2.2,3,3.7,3
2012/6/27 5:06,2.2,3,2.2,3,3,3
2012/6/27 5:07,2.1,3,2.2,3,2,2
2012/6/27 5:08,2.1,3,2.1,3,2.9,1
2012/6/27 5:09,1.9,3,2.1,3,2.7,3
2012/6/27 5:10,1.9,2,1.9,3,4.2,2
2012/6/27 5:11,1.9,2,2,3,3.6,2
2012/6/27 5:12,1.9,2,1.9,3,3.3,4
2012/6/27 5:13,1.8,2,1.9,3,2,4
2012/6/27 5:14,1.8,2,1.8,3,2.5,3
2012/6/27 5:15,1.7,2,1.8,3,2,3
2012/6/27 5:16,1.7,2,1.7,3,3.2,4
2012/6/27 5:17,1.8,2,1.8,3,2.7,3
2012/6/27 5:18,1.9,3,1.9,3,3.6,3
2012/6/27 5:19,2,3,2,2,3,3
2012/6/27 5:20,2,3,2,2,3,3
2012/6/27 5:21,2,3,2,3,3,3
2012/6/27 5:22,2.1,3,2.1,3,3.3,3
2012/6/27 5:23,2.2,3,2.2,3,3.3,4
2012/6/27 5:24,2.2,3,2.2,3,3,3
2012/6/27 5:25,2.3,3,2.3,3,3.1,3
2012/6/27 5:26,2.3,3,2.3,3,3,3
2012/6/27 5:27,2.3,3,2.3,3,2.2,4
2012/6/27 5:28,2.1,3,2.2,3,2,3
2012/6/27 5:29,2.1,3,2.1,3,2.1,2
2012/6/27 5:30,2,3,2,3,2.4,3
2012/6/27 5:31,1.9,3,2,3,2.4,3
2012/6/27 5:32,1.8,3,1.9,3,2.4,3
2012/6/27 5:33,1.7,3,1.8,3,2.5,3
2012/6/27 5:34,1.7,3,1.7,3,2.1,4
2012/6/27 5:35,1.6,3,1.7,3,2.1,2
2012/6/27 5:36,1.5,3,1.6,3,1.4,3
2012/6/27 5:37,1.5,3,1.5,3,1.9,3
2012/6/27 5:38,1.4,2,1.5,3,1.5,3
2012/6/27 5:39,1.3,2,1.4,3,1,2
2012/6/27 5:40,1.2,2,1.3,3,1.1,2
2012/6/27 5:41,1.1,2,1.2,3,1.1,3
2012/6/27 5:42,1.1,2,1.1,3,1.5,3
2012/6/27 5:43,1,2,1.1,3,1.6,3
2012/6/27 5:44,1,3,1,3,2,3
2012/6/27 5:45,1,3,1,3,1.5,3
2012/6/27 5:46,1,3,1,3,1.3,4
2012/6/27 5:47,1,3,1,3,1.6,4
2012/6/27 5:48,1,3,1,2,1.4,4
2012/6/27 5:49,1,3,1,2,1,3
2012/6/27 5:50,1,3,1,2,0.8,3
2012/6/27 5:51,0.9,3,1,2,0.5,16
2012/6/27 5:52,0.8,3,0.9,2,0.8,2
2012/6/27 5:53,0.8,3,0.8,2,1,3
2012/6/27 5:54,0.7,3,0.8,3,0.6,4
2012/6/27 5:55,0.6,4,0.7,3,0.6,5
2012/6/27 5:56,0.6,4,0.6,3,0.8,6
2012/6/27 5:57,0.5,4,0.6,3,0.8,6
2012/6/27 5:58,0.4,4,0.4,3,0.8,6
2012/6/27 5:59,0.4,5,0.4,3,0.5,6
2012/6/27 6:00,0.4,5,0.4,3,0.9,4
2012/6/27 6:01,0.4,5,0.4,3,0.8,6
2012/6/27 6:02,0.4,5,0.4,3,0.6,4
2012/6/27 6:03,0.4,5,0.4,3,0.8,3
2012/6/27 6:04,0.4,5,0.4,3,1.4,5
2012/6/27 6:05,0.5,5,0.5,4,1.5,5
2012/6/27 6:06,0.5,5,0.5,4,1.9,5
2012/6/27 6:07,0.6,5,0.6,5,1.4,4
2012/6/27 6:08,0.7,5,0.7,5,1.1,2
2012/6/27 6:09,0.7,4,0.7,5,0.6,16
2012/6/27 6:10,0.7,4,0.7,5,1.3,3
2012/6/27 6:11,0.8,4,0.8,4,1.4,3
2012/6/27 6:12,0.8,4,0.8,4,1.5,2
2012/6/27 6:13,0.9,3,0.9,3,1.6,3
2012/6/27 6:14,1,3,1,3,1.8,3
2012/6/27 6:15,1,3,1,3,2,3
2012/6/27 6:16,1,3,1,3,1.5,3
2012/6/27 6:17,1,3,1,3,1.3,3
2012/6/27 6:18,1,3,1,3,1.9,3
2012/6/27 6:19,1.1,3,1.1,3,1.5,2
2012/6/27 6:20,1.2,3,1.2,3,1.5,3
2012/6/27 6:21,1.2,3,1.2,3,1.6,4
2012/6/27 6:22,1.2,3,1.2,3,1.5,4
2012/6/27 6:23,1.2,3,1.2,3,1.6,3
2012/6/27 6:24,1.2,3,1.2,3,2.1,2
2012/6/27 6:25,1.1,3,1.2,3,2.1,1
2012/6/27 6:26,1.2,3,1.2,3,2.5,3
2012/6/27 6:27,1.2,3,1.2,3,2.2,3
2012/6/27 6:28,1.2,3,1.2,3,1.3,3
2012/6/27 6:29,1.1,3,1.2,3,1.5,3
2012/6/27 6:30,1.1,3,1.1,3,1.8,2
2012/6/27 6:31,1.2,2,1.2,3,3,2
2012/6/27 6:32,1.3,2,1.3,2,2.7,3
2012/6/27 6:33,1.4,2,1.4,2,2.6,2
2012/6/27 6:34,1.4,2,1.4,2,2.2,2
2012/6/27 6:35,1.4,2,1.5,2,2.7,2
2012/6/27 6:36,1.4,2,1.5,2,2,4
2012/6/27 6:37,1.4,2,1.4,2,2.5,2
2012/6/27 6:38,1.5,2,1.5,2,2.7,2
2012/6/27 6:39,1.6,2,1.6,2,2.1,2
2012/6/27 6:40,1.6,2,1.6,2,1.5,1
2012/6/27 6:41,1.5,2,1.6,2,2.5,2
2012/6/27 6:42,1.4,2,1.5,2,1.8,2
2012/6/27 6:43,1.4,2,1.4,2,2.4,3
2012/6/27 6:44,1.3,2,1.4,2,1.8,3
2012/6/27 6:45,1.4,2,1.4,2,2.5,2
2012/6/27 6:46,1.4,2,1.4,2,3.2,3
2012/6/27 6:47,1.4,2,1.4,2,2.6,2
2012/6/27 6:48,1.3,2,1.4,2,1.8,2
2012/6/27 6:49,1.3,2,1.3,2,1.8,3
2012/6/27 6:50,1.3,2,1.3,2,2,1
2012/6/27 6:51,1.3,2,1.3,2,1.8,3
2012/6/27 6:52,1.4,2,1.4,2,1.9,3
2012/6/27 6:53,1.4,2,1.4,2,1.9,4
2012/6/27 6:54,1.4,2,1.4,2,1.8,3
2012/6/27 6:55,1.4,3,1.4,2,1.6,3
2012/6/27 6:56,1.3,3,1.4,2,1.3,5
2012/6/27 6:57,1.2,3,1.3,2,1.3,5
2012/6/27 6:58,1.2,3,1.2,2,2,5
2012/6/27 6:59,1.3,3,1.3,2,2.5,3
2012/6/27 7:00,1.3,4,1.3,2,2.1,4
2012/6/27 7:01,1.3,4,1.3,2,1.6,4
2012/6/27 7:02,1.3,4,1.3,2,1.8,3
2012/6/27 7:03,1.3,4,1.3,2,2.4,3
2012/6/27 7:04,1.3,3,1.3,2,2.7,3
2012/6/27 7:05,1.4,3,1.4,3,2.6,3
2012/6/27 7:06,1.5,3,1.5,3,2.4,3
2012/6/27 7:07,1.5,3,1.5,3,1.3,2
2012/6/27 7:08,1.5,3,1.5,3,2.4,3
2012/6/27 7:09,1.5,3,1.5,3,1.8,3
2012/6/27 7:10,1.5,3,1.5,3,2.1,4
2012/6/27 7:11,1.6,3,1.6,3,2.2,3
2012/6/27 7:12,1.6,3,1.6,3,2.2,3
2012/6/27 7:13,1.5,3,1.6,3,1.5,3
2012/6/27 7:14,1.4,3,1.5,3,1.4,3
2012/6/27 7:15,1.3,3,1.4,3,2,3
2012/6/27 7:16,1.3,3,1.3,3,2.2,4
2012/6/27 7:17,1.4,3,1.4,3,2.1,4
2012/6/27 7:18,1.4,3,1.4,3,2.4,3
2012/6/27 7:19,1.4,3,1.4,3,2.6,3
2012/6/27 7:20,1.5,3,1.5,3,2.5,3
2012/6/27 7:21,1.4,3,1.5,3,2.5,3
2012/6/27 7:22,1.5,3,1.5,3,3.2,4
2012/6/27 7:23,1.7,3,1.7,3,3.6,3
2012/6/27 7:24,1.8,3,1.8,3,2.9,4
2012/6/27 7:25,1.9,3,1.9,3,2.2,4
2012/6/27 7:26,1.9,4,1.9,3,2.7,4
2012/6/27 7:27,2,4,2,4,2.6,3
2012/6/27 7:28,2.1,4,2.1,4,2.7,3
2012/6/27 7:29,1.9,3,2.1,4,2.2,3
2012/6/27 7:30,1.9,3,2,4,2.5,2
2012/6/27 7:31,1.9,3,1.9,4,2.5,3
2012/6/27 7:32,1.8,3,2,4,2.4,3
2012/6/27 7:33,1.7,3,1.8,4,3.7,3
2012/6/27 7:34,1.7,3,1.7,4,3.8,3
2012/6/27 7:35,1.9,3,1.9,4,3.9,3
2012/6/27 7:36,2,3,2,4,3.5,3
2012/6/27 7:37,1.9,3,2,4,2.7,2
2012/6/27 7:38,1.9,3,2,4,3.3,5
2012/6/27 7:39,2.1,3,2.1,3,2.7,3
2012/6/27 7:40,2.1,4,2.1,3,3,3
2012/6/27 7:41,2.2,4,2.2,4,2.6,5
2012/6/27 7:42,2.3,4,2.3,4,3.3,4
2012/6/27 7:43,2.3,4,2.3,4,3.5,3
2012/6/27 7:44,2.3,4,2.3,4,2.7,4
2012/6/27 7:45,2.3,4,2.3,4,3.7,3
2012/6/27 7:46,2.2,4,2.3,4,3,4
2012/6/27 7:47,2.1,4,2.2,4,2.5,2
2012/6/27 7:48,2.1,4,2.1,4,3.2,3
2012/6/27 7:49,2.1,4,2.1,4,3,5
2012/6/27 7:50,2.1,4,2.1,4,3.3,4
2012/6/27 7:51,2.1,4,2.1,4,3,4
2012/6/27 7:52,2,3,2.1,4,2.6,4
2012/6/27 7:53,2,4,2.1,4,2.7,3
2012/6/27 7:54,1.9,4,2,4,1.8,5
2012/6/27 7:55,1.7,4,1.9,4,1.9,4
2012/6/27 7:56,1.8,4,1.8,4,3,4
2012/6/27 7:57,1.7,4,1.8,4,1.8,4
2012/6/27 7:58,1.6,4,1.7,4,1.1,3
2012/6/27 7:59,1.5,4,1.6,4,2.2,2
2012/6/27 8:00,1.4,4,1.5,4,2.2,2
2012/6/27 8:01,1.5,3,1.5,4,3.3,2
2012/6/27 8:02,1.5,3,1.5,3,3.6,3
2012/6/27 8:03,1.5,3,1.5,4,2.4,2
2012/6/27 8:04,1.5,3,1.5,4,3.1,3
2012/6/27 8:05,1.6,3,1.6,4,2.6,3
2012/6/27 8:06,1.6,3,1.6,4,2.6,3
2012/6/27 8:07,1.6,3,1.6,4,2.2,5
2012/6/27 8:08,1.6,2,1.6,4,1,5
2012/6/27 8:09,1.6,2,1.6,3,2.6,2
2012/6/27 8:10,1.6,3,1.6,3,2.6,3
2012/6/27 8:11,1.7,3,1.7,3,2.5,3
2012/6/27 8:12,1.6,3,1.7,3,2.7,3
2012/6/27 8:13,1.5,3,1.6,3,2.1,3
2012/6/27 8:14,1.4,3,1.5,3,1.5,3
2012/6/27 8:15,1.4,3,1.4,3,3.2,2
2012/6/27 8:16,1.4,3,1.4,3,2.5,3
2012/6/27 8:17,1.4,3,1.4,3,2.2,3
2012/6/27 8:18,1.5,3,1.5,3,1.5,3
2012/6/27 8:19,1.5,3,1.5,3,2.1,3
2012/6/27 8:20,1.4,3,1.5,3,1.4,4
2012/6/27 8:21,1.3,3,1.3,3,1.8,4
2012/6/27 8:22,1.3,3,1.3,3,2.5,4
2012/6/27 8:23,1.3,3,1.3,3,2,4
2012/6/27 8:24,1.4,3,1.4,3,1.8,4
2012/6/27 8:25,1.3,4,1.4,3,1.9,3
2012/6/27 8:26,1.2,4,1.3,3,1.4,4
2012/6/27 8:27,1.1,4,1.2,3,1.3,2
2012/6/27 8:28,1.1,4,1.1,3,1.4,3
2012/6/27 8:29,1,3,1.1,3,2.2,1
2012/6/27 8:30,1,3,1,3,1.9,16
2012/6/27 8:31,1,3,1,3,2.5,4
2012/6/27 8:32,1.1,3,1.1,3,2.7,3
2012/6/27 8:33,1,3,1,3,1.8,3
2012/6/27 8:34,1.2,3,1.2,3,3.1,3
2012/6/27 8:35,1.2,3,1.2,4,2.1,3
2012/6/27 8:36,1.2,3,1.2,4,2,3
2012/6/27 8:37,1.3,3,1.3,3,2.2,3
2012/6/27 8:38,1.3,3,1.3,3,1.4,2
2012/6/27 8:39,1.3,3,1.3,3,1.4,2
2012/6/27 8:40,1.3,3,1.3,3,2,4
2012/6/27 8:41,1.4,3,1.4,3,2,5
2012/6/27 8:42,1.4,3,1.4,3,2,4
2012/6/27 8:43,1.4,4,1.4,3,2.7,6
2012/6/27 8:44,1.4,4,1.4,3,3,6
2012/6/27 8:45,1.4,4,1.4,3,2.2,6
2012/6/27 8:46,1.3,5,1.4,3,1.5,5
2012/6/27 8:47,1.3,5,1.3,3,1.5,5
2012/6/27 8:48,1.3,5,1.3,3,1.6,6
2012/6/27 8:49,1.3,6,1.3,3,1.6,6
2012/6/27 8:50,1.3,6,1.3,3,2.2,6
2012/6/27 8:51,1.3,6,1.3,3,2.1,6
2012/6/27 8:52,1.3,6,1.3,3,2.1,3
2012/6/27 8:53,1.3,6,1.3,4,2.1,4
2012/6/27 8:54,1.2,5,1.3,4,1.9,3
2012/6/27 8:55,1.2,5,1.2,4,1.9,4
2012/6/27 8:56,1.2,5,1.2,5,1.8,5
2012/6/27 8:57,1.2,5,1.2,5,2.1,6
2012/6/27 8:58,1.3,5,1.3,5,1.8,6
2012/6/27 8:59,1.4,4,1.4,5,3.3,5
2012/6/27 9:00,1.5,4,1.6,4,3.5,5
2012/6/27 9:01,1.5,4,1.5,4,2.5,5
2012/6/27 9:02,1.5,4,1.5,4,2.5,4
2012/6/27 9:03,1.5,4,1.5,4,2.2,5
2012/6/27 9:04,1.5,4,1.5,4,2.2,5
2012/6/27 9:05,1.5,4,1.5,4,2,4
2012/6/27 9:06,1.5,4,1.5,4,1.9,3
2012/6/27 9:07,1.6,4,1.6,4,3,3
2012/6/27 9:08,1.7,4,1.7,4,3,3
2012/6/27 9:09,1.6,4,1.7,4,2.2,3
2012/6/27 9:10,1.4,4,1.6,4,1.1,2
2012/6/27 9:11,1.4,4,1.4,4,1.6,8
2012/6/27 9:12,1.3,4,1.4,4,1.5,7
2012/6/27 9:13,1.3,4,1.3,4,2.6,8
2012/6/27 9:14,1.2,5,1.3,4,2.5,8
2012/6/27 9:15,1.2,6,1.2,4,2,8
2012/6/27 9:16,1.2,6,1.2,4,2.1,6
2012/6/27 9:17,1.1,7,1.2,4,1.6,7
2012/6/27 9:18,1,7,1.1,4,1.6,8
2012/6/27 9:19,1,7,1,4,2.7,6
2012/6/27 9:20,1,7,1,4,1,6
2012/6/27 9:21,1,7,1,4,1,5
2012/6/27 9:22,1,7,1,4,0.5,14
2012/6/27 9:23,0.9,7,0.9,5,1,6
2012/6/27 9:24,0.8,6,0.8,5,0.8,6
2012/6/27 9:25,0.7,7,0.8,6,1.8,8
2012/6/27 9:26,0.7,7,0.8,6,2.4,9
2012/6/27 9:27,0.8,7,0.8,7,2.1,7
2012/6/27 9:28,0.9,7,0.9,7,2.1,9
2012/6/27 9:29,0.8,7,0.9,7,2.1,8
2012/6/27 9:30,0.9,8,0.9,7,2.5,9
2012/6/27 9:31,0.9,8,0.9,7,2.4,9
2012/6/27 9:32,1.1,8,1.1,8,3.1,7
2012/6/27 9:33,1.3,8,1.3,8,3.1,7
2012/6/27 9:34,1.5,8,1.5,8,3.3,8
2012/6/27 9:35,1.5,8,1.6,8,2.1,8
2012/6/27 9:36,1.4,8,1.5,8,1,10
2012/6/27 9:37,1.4,8,1.4,8,1.5,8
2012/6/27 9:38,1.4,8,1.4,8,2,8
2012/6/27 9:39,1.4,8,1.4,8,1.9,8
2012/6/27 9:40,1.3,8,1.4,8,1.1,7
2012/6/27 9:41,1.3,8,1.3,8,1.3,8
2012/6/27 9:42,1.2,7,1.3,8,1.6,7
2012/6/27 9:43,1.1,8,1.2,8,1.3,7
2012/6/27 9:44,0.9,7,1.1,8,0.8,7
2012/6/27 9:45,0.8,7,0.9,8,0.5,4
2012/6/27 9:46,0.8,7,0.8,8,0.8,8
2012/6/27 9:47,0.8,7,0.8,8,1.3,11
2012/6/27 9:48,0.7,7,0.8,8,1.5,11
2012/6/27 9:49,0.7,8,0.7,8,1,10
2012/6/27 9:50,0.6,8,0.7,8,0.3,11
2012/6/27 9:51,0.6,9,0.6,8,1.3,11
2012/6/27 9:52,0.5,9,0.5,7,1.6,7
2012/6/27 9:53,0.6,9,0.6,8,2.9,7
2012/6/27 9:54,0.8,10,0.8,7,4.1,9
2012/6/27 9:55,1,10,1,10,3.9,8
2012/6/27 9:56,1.2,10,1.2,10,3.1,8
2012/6/27 9:57,1.3,9,1.3,10,2.6,8
2012/6/27 9:58,1.4,9,1.4,9,2.9,8
2012/6/27 9:59,1.5,9,1.5,9,3,8
2012/6/27 10:00,1.7,8,1.7,8,3.2,8
2012/6/27 10:01,1.9,8,1.9,8,3.8,8
2012/6/27 10:02,1.9,8,1.9,8,2,9
2012/6/27 10:03,1.9,8,1.9,8,2.2,8
2012/6/27 10:04,1.8,8,1.9,8,2.5,7
2012/6/27 10:05,1.7,8,1.8,8,3.1,8
2012/6/27 10:06,1.6,8,1.7,8,2.9,8
2012/6/27 10:07,1.5,8,1.6,8,2.1,7
2012/6/27 10:08,1.5,8,1.5,8,2.7,8
2012/6/27 10:09,1.5,8,1.6,8,2.2,8
2012/6/27 10:10,1.5,8,1.5,8,3.6,8
2012/6/27 10:11,1.4,8,1.5,8,3.5,8
2012/6/27 10:12,1.4,8,1.4,8,1.8,9
2012/6/27 10:13,1.4,8,1.4,8,2.9,9
2012/6/27 10:14,1.4,8,1.4,8,2.9,8
2012/6/27 10:15,1.4,8,1.4,8,2.7,8
2012/6/27 10:16,1.3,8,1.4,8,1.9,7
2012/6/27 10:17,1.4,8,1.4,8,2,10
2012/6/27 10:18,1.3,8,1.4,8,2.2,8
2012/6/27 10:19,1.3,8,1.3,8,2.1,7
2012/6/27 10:20,1.2,8,1.3,8,1.4,7
2012/6/27 10:21,1.1,8,1.2,8,1.1,8
2012/6/27 10:22,1.1,8,1.1,8,0.6,8
2012/6/27 10:23,1.1,8,1.1,8,2.4,4
2012/6/27 10:24,1.2,7,1.2,8,2.1,5
2012/6/27 10:25,1.1,7,1.2,8,2,7
2012/6/27 10:26,1.1,7,1.1,8,1.9,5
2012/6/27 10:27,1,6,1.1,8,0.6,1
2012/6/27 10:28,0.9,6,1,8,1.4,8
2012/6/27 10:29,0.9,6,0.9,8,2.4,8
2012/6/27 10:30,1,6,1,8,3.6,6
2012/6/27 10:31,1.1,6,1.1,8,3.3,6
2012/6/27 10:32,1.3,6,1.3,6,2.5,8
2012/6/27 10:33,1.2,7,1.3,6,2.6,7
2012/6/27 10:34,1.2,7,1.2,6,2.2,8
2012/6/27 10:35,1.2,7,1.2,6,2.2,10
2012/6/27 10:36,1.2,7,1.2,6,1.3,8
2012/6/27 10:37,1.3,7,1.3,6,1.4,10
2012/6/27 10:38,1.2,7,1.2,6,1,3
2012/6/27 10:39,1.1,7,1.2,6,1.3,6
2012/6/27 10:40,1.1,7,1.2,6,1.5,4
2012/6/27 10:41,1,7,1.1,6,1.4,4
2012/6/27 10:42,0.9,6,1,6,1.4,6
2012/6/27 10:43,0.8,6,0.8,7,1.5,6
2012/6/27 10:44,0.8,6,0.9,7,2.1,8
2012/6/27 10:45,0.8,7,0.8,7,2.5,8
2012/6/27 10:46,1,7,1,7,2.7,7
2012/6/27 10:47,1,7,1,7,2.6,8
2012/6/27 10:48,1.2,7,1.2,7,2.7,8
2012/6/27 10:49,1.2,7,1.2,7,3,8
2012/6/27 10:50,1.3,8,1.3,8,2.2,10
2012/6/27 10:51,1.3,8,1.3,8,3.2,8
2012/6/27 10:52,1.7,8,1.7,8,4.3,7
2012/6/27 10:53,1.7,8,1.7,8,2.9,6
2012/6/27 10:54,1.7,8,1.7,8,2.2,8
2012/6/27 10:55,1.7,8,1.7,8,1.8,9
2012/6/27 10:56,1.6,8,1.7,8,2,8
2012/6/27 10:57,1.6,8,1.7,8,1.8,7
2012/6/27 10:58,1.6,8,1.6,8,2.6,6
2012/6/27 10:59,1.6,7,1.6,8,2.2,5
2012/6/27 11:00,1.6,7,1.6,8,2.7,7
2012/6/27 11:01,1.5,7,1.5,8,1.8,6
2012/6/27 11:02,1.3,6,1.5,8,2,6
2012/6/27 11:03,1.4,6,1.4,8,3,5
2012/6/27 11:04,1.4,6,1.5,8,3.2,4
2012/6/27 11:05,1.5,6,1.5,8,2,3
2012/6/27 11:06,1.5,5,1.5,8,2.1,4
2012/6/27 11:07,1.5,5,1.5,8,3.1,4
2012/6/27 11:08,1.5,5,1.5,8,1.8,7
2012/6/27 11:09,1.5,5,1.5,7,3,9
2012/6/27 11:10,1.5,5,1.5,7,2.9,8
2012/6/27 11:11,1.6,5,1.6,5,4.1,8
2012/6/27 11:12,1.6,6,1.6,5,3.3,8
2012/6/27 11:13,1.6,6,1.7,6,3.3,8
2012/6/27 11:14,1.6,7,1.6,6,1.9,6
2012/6/27 11:15,1.6,7,1.6,6,3.5,9
2012/6/27 11:16,1.5,8,1.6,6,2.4,11
2012/6/27 11:17,1.6,8,1.6,6,4.7,8
2012/6/27 11:18,1.8,8,1.8,8,3.6,8
2012/6/27 11:19,1.8,8,1.8,8,3.2,7
2012/6/27 11:20,1.9,8,1.9,8,4.4,8
2012/6/27 11:21,2.1,8,2.1,8,5,8
2012/6/27 11:22,2.1,8,2.1,8,5.6,9
2012/6/27 11:23,2.1,8,2.1,8,3.9,9
2012/6/27 11:24,2.2,8,2.2,8,3.5,8
2012/6/27 11:25,2.3,8,2.3,8,3.1,9
2012/6/27 11:26,2.4,8,2.4,8,3.2,9
2012/6/27 11:27,2.3,8,2.4,8,3.9,10
2012/6/27 11:28,2.4,8,2.4,8,4.7,10
2012/6/27 11:29,2.4,8,2.4,8,4.3,10
2012/6/27 11:30,2.3,8,2.4,8,3.8,9
2012/6/27 11:31,2.2,9,2.3,8,4.4,9
2012/6/27 11:32,2.1,9,2.2,8,1.6,10
2012/6/27 11:33,2,9,2,8,2.9,9
2012/6/27 11:34,1.9,9,2,8,2.5,9
2012/6/27 11:35,1.8,9,1.9,8,2.5,7
2012/6/27 11:36,1.8,9,1.8,8,2.7,8
2012/6/27 11:37,1.8,9,1.9,8,3.2,9
2012/6/27 11:38,1.7,9,1.8,8,2.9,9
2012/6/27 11:39,1.6,9,1.7,8,3.3,9
2012/6/27 11:40,1.7,9,1.7,9,3.2,10
2012/6/27 11:41,1.6,9,1.7,9,3.1,8
2012/6/27 11:42,1.8,9,1.8,9,3.1,8
2012/6/27 11:43,1.8,9,1.8,9,3.3,8
2012/6/27 11:44,1.8,9,1.9,9,3,10
2012/6/27 11:45,1.9,9,1.9,9,3.5,9
2012/6/27 11:46,1.9,9,1.9,9,3.2,9
2012/6/27 11:47,1.8,9,1.9,9,2,9
2012/6/27 11:48,1.7,9,1.8,9,1,9
2012/6/27 11:49,1.6,9,1.7,9,1.9,8
2012/6/27 11:50,1.6,9,1.6,9,3.1,8